Location: Acton
(51.4942°N, 0.2232°W)
Time: 13:17:28
(UTC+00:00)

Cosmos 1844 Rocket - Pass Details

Date: 18 September 2020
Orbit: 823 x 846 km, 71.0° (Epoch: 22 October)

Event Time Altitude Azimuth Distance (km) Brightness Sun altitude
Rises 19:39:29 0° 182° (S) 3,346 5.6 -14.8°
Reaches altitude 10° 19:42:02 10° 174° (S) 2,419 4.8 -15.1°
Maximum altitude 19:47:06 38° 108° (ESE) 1,250 3.1 -15.9°
Drops below altitude 10° 19:52:12 10° 42° (NE) 2,445 4.9 -16.6°
Sets 19:54:48 0° 35° (NE) 3,386 5.7 -16.9°
